User: anonymous   Login
Location: Unspecified
(0.0000°N, 0.0000°E)
Time: 15:26:48
(UTC+00:00)
Language:

Explorer 7 - Orbit

View from above orbital plane
View from above orbital plane
View from above satellite
View from above satellite

Ground track
Ground track

The orbit data is extracted from the following two-line orbital elements,

1    22U 59009A   22224.14648930  .00001620  00000-0  13736-3 0  9996
2    22  50.2834  11.8106 0134096  23.7763 336.9304 14.97279245342935
Epoch (UTC): 12 August 2022 03:30:56
Eccentricity: 0.0134096
inclination: 50.2834°
perigee height: 482 km
apogee height: 668 km
right ascension of ascending node: 11.8106°
argument of perigee: 23.7763°
revolutions per day: 14.97279245
mean anomaly at epoch: 336.9304°
orbit number at epoch: 34293

The dashed part of the orbit path shows where the satellite is in the earth's shadow,  

DLR